Weather in Kamishin

Russia / Volgograd Oblast     50°05′01″N   45°24′26″E
temp.,
°C
wind,
m/s
gust,
m/s
humid.,
%
clouds,
%
prec.,
mm/h
press.,
hPa
HPBL,
m
5 august, thu
thu500:00+21nnw376399 0.0 1015145
03:00+20n3568100 0.0 101695
06:00+21nnw25619 0.0 1016162
09:00+27nne4534100 0.0 10161490
12:00+29nne4425100 0.0 10162309
15:00+30nne3423100 0.0 10152687
18:00+29nne33252 0.0 10152042
21:00+23nne2237100 0.0 101516
6 august, fri
fri600:00+22nne354466 0.0 101684
03:00+19nne34525 0.0 101548
06:00+20ne25485 0.0 1016135
09:00+27ene44293 0.0 1016718
12:00+31ene44224 0.0 10152055
15:00+32ne54203 0.0 10132398
18:00+31ne56220 0.0 10131202
21:00+24ene410325 0.0 1014173
7 august, sat
sat700:00+22e411365 0.0 1014191
03:00+20ene35365 0.0 101488
06:00+21ene37385 0.0 1014180
09:00+29e562396 0.0 10141084
12:00+34ese5616100 0.0 10132108
15:00+36ese561366 0.0 10112595
18:00+34ese4615100 0.0 1011174
21:00+27e342299 0.0 101244
8 august, sun
sun800:00+24ene332790 0.0 101237
03:00+23ene333017 0.0 101246
06:00+24ene393130 0.0 1013239
09:00+33ese5719100 0.0 1013789
12:00+37ese5715100 0.0 10122263
15:00+37e6714100 0.0 10102136
18:00+32wnw5622100 0.0 1011132
21:00+30ne81624100 0.0 1010349
9 august, mon
mon900:00+29ne7122369 0.0 1009301
03:00+26ne61028100 0.0 1008165
06:00+25ne5937100 0.6 1007171
09:00+31sse4530100 0.6 1007664
12:00+35ssw7922100 0.0 10071565
15:00+37ssw892053 0.0 10062585
18:00+35s67205 0.0 10051921
21:00+28sw343330 0.0 100546